Location: Sternwarte_Laufen
(47.9344°N, 12.9346°E)
Time: 00:41:39
(UTC+02:00)

ISS - Pass Details

Date: 25 May 2017
Orbit: 402 x 408 km, 51.6° (Epoch: 27 May)

Event Time Altitude Azimuth Distance (km) Brightness Sun altitude
Rises 01:04:28 0° 279° (W) 2,332 0.1 -21.1°
Reaches altitude 10° 01:06:37 10° 287° (WNW) 1,470 -0.8 -21.1°
Maximum altitude 01:09:46 41° 359° (N) 604 -2.5 -21.1°
Drops below altitude 10° 01:12:55 10° 72° (ENE) 1,467 -0.8 -21.1°
Sets 01:15:04 0° 80° (E) 2,325 0.2 -21.1°
